Regional Weather Roundup
Issued by NWS Charleston, SC

Current Version | Previous Version | Text Only | Print | Product List | Glossary Off
Versions: 1 2 3 4 5 6 7 8 9 10 11 12 13 14 15 16 17 18 19 20 21 22 23 24 25 26 27 28 29 30 31 32 33 34 35 36 37 38 39 40 41 42 43 44 45 46 47 48 49 50

000
ASUS42 KCHS 041512
RWRCHS

REGIONAL WEATHER ROUNDUP
NATIONAL WEATHER SERVICE CHARLESTON SC
1100 AM EDT MON MAY 04 2015

NOTE: "FAIR" INDICATES FEW OR NO CLOUDS BELOW 12,000 FEET WITH NO
SIGNIFICANT WEATHER AND/OR OBSTRUCTIONS TO VISIBILITY.

NOT ALL STATIONS ARE QUALITY CONTROLLED BY THE NATIONAL
WEATHER SERVICE. USE DATA WITH CAUTION...ESPECIALLY
DEWPOINT OBSERVATIONS.

SCZ027-030-031-034>040-042>050-041600-
...SOUTHEAST SOUTH CAROLINA...

CITY           SKY/WX    TMP DP  RH WIND       PRES   REMARKS
N CHARLESTON   MOSUNNY   77  55  46 CALM      30.33S
WATERFRONT PRK   N/A     75 N/A N/A E8          N/A
MOUNT PLEASANT FAIR      75  59  57 MISG      30.33S
PINOPOLIS      NOT AVBL
MONCKS CORNER  FAIR      77  57  50 CALM      30.33S
SUMMERVILLE    FAIR      77  61  57 CALM      30.34S
BEAUFORT MCAS  MOSUNNY   76  61  59 CALM      30.32S
BEAUFORT ARPT  FAIR      77  61  57 E3        30.31S
HILTON HEAD IS MOSUNNY   75  61  60 E6        30.33S
WALTERBORO     MOSUNNY   73  61  64 S3        30.33S
ALLENDALE      FAIR      75  54  46 E6        30.32S

...SOUTHERN MIDLANDS AND PEE DEE...

CITY           SKY/WX    TMP DP  RH WIND       PRES   REMARKS
GEORGETOWN     NOT AVBL
KINGSTREE      NOT AVBL
ORANGEBURG     SUNNY     76  50  40 VRB5      30.33S
BARNWELL       FAIR      75  50  41 SW6       30.33S
AIKEN          FAIR      72  46  40 SW8       30.36S
MANNING        FAIR      73  54  49 SW6       30.33S
COLUMBIA       SUNNY     75  52  44 VRB7      30.33R
SUMTER         NOT AVBL
FLORENCE       PTSUNNY   77  51  40 S7        30.33S
MYRTLE BEACH   SUNNY     75  59  57 S9        30.36S
N MYRTLE BEACH SUNNY     74  57  55 S8        30.35R

$$

GAZ063-065-086>088-099>101-113>116-118-119-134>141-150-041600-
...SOUTHEAST GEORGIA...

CITY           SKY/WX    TMP DP  RH WIND       PRES   REMARKS
SAVANNAH ARPT  MOSUNNY   77  59  53 E6        30.31S
HUNTER AAF     NOT AVBL
FORT STEWART   NOT AVBL
STATESBORO       N/A     76  57  51 S5        30.32S
SYLVANIA       SUNNY     75  58  55 SW3       30.33S
CLAXTON        FAIR      73  59  60 E3        30.31S

...CSRA...CENTRAL AND FAR SOUTHEAST GEORGIA...

CITY           SKY/WX    TMP DP  RH WIND       PRES   REMARKS
THOMSON        SUNNY     76  58  53 CALM      30.37R
AUGUSTA-BUSH   SUNNY     75  55  49 CALM      30.32S
AUGUSTA-DANIEL SUNNY     75  54  47 SW5       30.33R
SWAINSBORO     NOT AVBL
VIDALIA        SUNNY     75  57  53 SE3       30.32S
EASTMAN        FAIR      74  57  54 CALM      30.33S
HAZLEHURST     FAIR      76  56  49 E5        30.30S
ALMA           SUNNY     76  54  46 VRB6      30.30S
WAYCROSS       SUNNY     80  59  48 E7        30.29S
JESUP          FAIR      79  63  57 E9        30.31R
BAXLEY         FAIR      77  55  47 NE6       30.30S
BRUNSWICK      PTSUNNY   77  59  53 E12       30.31R
SAINT SIMONS   MOSUNNY   75  64  68 E12       30.30R

$$

SCZ027-028-034-036>038-045-046-048>050-GAZ119-141-041600-
...LAKE AND SUPPLEMENTAL COASTAL OBSERVATIONS...

STATION/POSITION TIME  TEMP    WIND        PRES    WAVE   SWELL
                       AIR SEA DIR/SP/G            HT/PER HT/PER/DIR
                 (UTC) (F)     (DEG/KT/KT) (MB)    (FT/S) (FT/S/D)
UPR LAKE MARION  NOT AVBL
WINYAH BAY       1345   72     120/  4     1026.0
LAKE MURRAY      1400   69     180/  6/  7 1026.4R
ACE BASIN NERRS  NOT AVBL
FORT PULASKI     1412   71 70   60/  7/  8 1027.0R
SAPELO ISLAND    1400   75      60/  8     1026.0R

$$

ANZ835-935-AMZ111-154-330-350-352-354-370-450-454-472-041600-
...C-MAN AND BUOY OBSERVATIONS...

STATION/POSITION TIME  TEMP    WIND        PRES    WAVE   SWELL
                       AIR SEA DIR/SP/G            HT/PER HT/PER/DIR
                 (UTC) (F)     (DEG/KT/KT) (MB)    (FT/S) (FT/S/D)
BUOY 41004       1450   73 74   70/  8/ 10 1026.9R   3/11   3/11
BUOY 41008       1450   71 70   80/  6/  6 1026.5R   2/12   2/ 70/12
FOLLY BEACH CMAN 1500   73      80/  5/  6 1027.2R
CAPERS NEARSHORE 1408   71      70/  2/  4 1027.0R
FRIPP NEARSHORE  1400   72      50/  6/  6 1025.7R


STATION/POSITION TIME  TEMP    WIND        PRES    WAVE   SWELL
                       AIR SEA DIR/SP/G            HT/PER HT/PER/DIR
                 (UTC) (F)     (DEG/KT/KT) (MB)    (FT/S) (FT/S/D)
5E ST. MARYS GA  1421      71                N/A     2/13   2/ 70/13
FRYING PAN BUOY  1450   74 72  160/  2/  6 1028.7R   3/ 9   3/ 70/ 9
BUOY 41025       1450   67 77  300/  4/  6 1028.0R   4/10   3/ 70/10
CAPE LOOKOUT NC  1400   66     100/  5/  5 1027.5R
BUOY 41002       1450   68 70   70/ 16/ 17 1027.8R   6/11   5/ 30/11
BUOY 41010       1420   73 78   50/ 16/ 17 1024.0R
ST AUGUSTINE FL  1500   68 71   30/ 12/ 13 1026.3R


$$


USA.gov is the U.S. government's official web portal to all federal, state and local government web resources and services.